Weather History for Midland Airpark, TX

Change the Weather History Date:

Friday, July 26, 2013

  Actual Average (KMAF) Record (KMAF)
Temperature  
Mean Temperature 88 °F 82 °F  
Max Temperature 98 °F 95 °F 105 °F (1995)
Min Temperature 78 °F 70 °F 61 °F (2004)
Cooling Degree Days 22 17  
Month to date cooling degree days 442  
Year to date cooling degree days 1292  
Since 1 June cooling degree days 903  
Growing Degree Days 38 (Base 50)    
Moisture  
Dew Point 58 °F    
Average Humidity 38    
Maximum Humidity 53    
Minimum Humidity 26    
Precipitation  
Precipitation 0.00 in 0.06 in 2.88 in (1991)
Month to date precipitation 1.54  
Year to date precipitation 7.60  
Sea Level Pressure  
Sea Level Pressure 30.08 in    
Wind  
Wind Speed 8 mph (NE)    
Max Wind Speed 16 mph    
Max Gust Speed 24 mph    
Visibility 10 miles    
Events      
T = Trace of Precipitation, MM = Missing Value Source: NWS Daily Summary

Daily Weather History Graph

Daily Weather History Graph

Search for Another Location

Airport:

Trip Planner

Search our weather history database for the weather conditions in past years. The results will help you decide how hot, cold, wet, or windy it might be!

Date:

Astronomy

Jul. 26, 2013 Rise Set
Actual Time 6:59 AM CDT 8:49 PM CDT
Civil Twilight 6:32 AM CDT 9:16 PM CDT
Nautical Twilight 6:00 AM CDT 9:49 PM CDT
Astronomical Twilight 5:25 AM CDT 10:23 PM CDT
Moon 11:26 PM CDT (7/26) 11:18 AM CDT (7/26)
Length of Visible Light 14h 43m
Length of Day
13h 49m
Waning Gibbous, 80% of the Moon is Illuminated
Jul 26
Waning Gibbous
Jul 29
Last Quarter
Aug 6
New
Aug 14
First Quarter
Aug 20
Full

Hourly Weather History & Observations

Time (CDT) Temp. Heat Index Dew Point Humidity Pressure Visibility Wind Dir Wind Speed Gust Speed Precip Events Conditions
12:15 AM 86.2 °F 85.0 °F 57.4 °F 37% 30.07 in 10.0 mi South 8.1 mph - N/A   Clear
12:35 AM 85.8 °F 84.8 °F 57.7 °F 38% 30.07 in 10.0 mi South 9.2 mph - N/A   Clear
12:55 AM 85.3 °F 84.8 °F 59.0 °F 41% 30.07 in 10.0 mi South 9.2 mph - N/A   Clear
1:15 AM 84.4 °F 84.0 °F 59.2 °F 42% 30.07 in 10.0 mi South 10.4 mph - N/A   Clear
1:35 AM 84.2 °F 83.7 °F 58.1 °F 41% 30.07 in 10.0 mi South 10.4 mph - N/A   Clear
1:55 AM 83.8 °F 82.8 °F 55.6 °F 38% 30.07 in 10.0 mi South 11.5 mph - N/A   Clear
2:15 AM 83.5 °F 82.2 °F 54.0 °F 36% 30.06 in 10.0 mi South 11.5 mph - N/A   Clear
2:35 AM 83.1 °F 82.1 °F 54.5 °F 37% 30.07 in 10.0 mi South 8.1 mph - N/A   Clear
2:55 AM 82.4 °F 81.8 °F 55.6 °F 40% 30.07 in 10.0 mi SSW 5.8 mph - N/A   Clear
3:15 AM 81.9 °F 81.4 °F 55.8 °F 41% 30.06 in 10.0 mi SSW 8.1 mph - N/A   Clear
3:35 AM 81.5 °F 81.1 °F 55.4 °F 41% 30.05 in 10.0 mi SSW 8.1 mph - N/A   Clear
3:55 AM 81.0 °F 80.9 °F 56.5 °F 43% 30.05 in 10.0 mi SSW 10.4 mph 16.1 mph N/A   Clear
4:15 AM 80.8 °F 81.1 °F 58.1 °F 46% 30.06 in 10.0 mi SSW 10.4 mph - N/A   Clear
4:35 AM 80.2 °F 80.7 °F 58.3 °F 47% 30.06 in 10.0 mi SSW 5.8 mph - N/A   Clear
4:55 AM 79.7 °F - 58.3 °F 48% 30.07 in 10.0 mi Calm Calm - N/A   Clear
5:15 AM 79.9 °F - 58.5 °F 48% 30.07 in 10.0 mi SW 3.5 mph - N/A   Clear
5:35 AM 79.7 °F - 58.8 °F 49% 30.07 in 10.0 mi Calm Calm - N/A   Clear
5:55 AM 79.7 °F - 59.0 °F 49% 30.07 in 10.0 mi Calm Calm - N/A   Clear
6:15 AM 79.3 °F - 59.4 °F 50% 30.07 in 10.0 mi Calm Calm - N/A   Clear
6:35 AM 79.2 °F - 59.4 °F 51% 30.07 in 10.0 mi Calm Calm - N/A   Clear
6:55 AM 78.8 °F - 59.2 °F 51% 30.07 in 10.0 mi Calm Calm - N/A   Clear
7:15 AM 78.8 °F - 59.2 °F 51% 30.08 in 10.0 mi Calm Calm - N/A   Clear
7:35 AM 78.3 °F - 59.9 °F 53% 30.08 in 10.0 mi East 3.5 mph - N/A   Clear
7:55 AM 79.0 °F - 60.3 °F 53% 30.08 in 10.0 mi Calm Calm - N/A   Clear
8:15 AM 80.6 °F 81.4 °F 60.6 °F 50% 30.08 in 10.0 mi Calm Calm - N/A   Clear
8:35 AM 81.1 °F 82.0 °F 61.7 °F 51% 30.09 in 10.0 mi Calm Calm - N/A   Clear
9:15 AM 83.3 °F 84.1 °F 62.4 °F 49% 30.09 in 10.0 mi SSW 6.9 mph - N/A   Clear
9:35 AM 83.7 °F 84.3 °F 62.1 °F 48% 30.12 in 10.0 mi Calm Calm - N/A   Clear
9:55 AM 84.7 °F 85.0 °F 61.0 °F 45% 30.12 in 10.0 mi Calm Calm - N/A   Clear
10:15 AM 86.0 °F 86.1 °F 60.8 °F 43% 30.12 in 10.0 mi North 6.9 mph - N/A   Clear
10:35 AM 86.5 °F 86.5 °F 61.0 °F 42% 30.11 in 10.0 mi North 5.8 mph - N/A   Clear
10:55 AM 88.0 °F 87.9 °F 61.0 °F 40% 30.12 in 10.0 mi North 4.6 mph - N/A   Clear
11:15 AM 88.2 °F 87.6 °F 59.7 °F 38% 30.12 in 10.0 mi North 3.5 mph - N/A   Clear
11:35 AM 89.6 °F 88.6 °F 58.6 °F 35% 30.12 in 10.0 mi NW 5.8 mph - N/A   Clear
11:55 AM 90.0 °F 88.6 °F 57.4 °F 33% 30.11 in 10.0 mi NNW 4.6 mph - N/A   Clear
12:15 PM 91.6 °F 90.1 °F 57.2 °F 31% 30.11 in 10.0 mi NW 9.2 mph - N/A   Clear
12:35 PM 93.7 °F 92.0 °F 56.5 °F 28% 30.10 in 10.0 mi North 8.1 mph - N/A   Clear
12:55 PM 94.8 °F 92.8 °F 55.4 °F 26% 30.10 in 10.0 mi North 8.1 mph - N/A   Clear
1:15 PM 95.7 °F 94.3 °F 56.7 °F 27% 30.09 in 10.0 mi NNE 10.4 mph 16.1 mph N/A   Clear
1:35 PM 95.7 °F 94.3 °F 56.7 °F 27% 30.09 in 10.0 mi NE 10.4 mph - N/A   Clear
1:55 PM 97.0 °F 96.1 °F 57.4 °F 27% 30.08 in 10.0 mi NNE 13.8 mph 19.6 mph N/A   Clear
2:15 PM 96.3 °F 95.1 °F 57.6 °F 27% 30.07 in 10.0 mi NNE 8.1 mph 17.3 mph N/A   Scattered Clouds
2:35 PM 97.2 °F 96.8 °F 59.2 °F 28% 30.07 in 10.0 mi NNE 9.2 mph 18.4 mph N/A   Scattered Clouds
2:55 PM 96.8 °F 96.2 °F 59.0 °F 28% 30.07 in 10.0 mi NE 8.1 mph - N/A   Scattered Clouds
3:15 PM 96.6 °F 96.0 °F 58.5 °F 28% 30.06 in 10.0 mi NE 8.1 mph - N/A   Scattered Clouds
3:35 PM 96.4 °F 95.7 °F 57.9 °F 28% 30.06 in 10.0 mi North 11.5 mph 18.4 mph N/A   Clear
3:55 PM 96.8 °F 95.8 °F 58.1 °F 27% 30.05 in 10.0 mi NNE 10.4 mph 16.1 mph N/A   Scattered Clouds
4:15 PM 95.9 °F 94.9 °F 57.7 °F 28% 30.04 in 10.0 mi NNE 8.1 mph 17.3 mph N/A   Scattered Clouds
4:35 PM 97.0 °F 96.5 °F 58.5 °F 28% 30.04 in 10.0 mi NE 13.8 mph 17.3 mph N/A   Scattered Clouds
4:55 PM 96.3 °F 95.5 °F 58.1 °F 28% 30.03 in 10.0 mi NNE 12.7 mph 21.9 mph N/A   Scattered Clouds
5:15 PM 96.8 °F 96.7 °F 59.4 °F 29% 30.03 in 10.0 mi ENE 13.8 mph 24.2 mph N/A   Scattered Clouds
5:35 PM 96.4 °F 95.7 °F 58.5 °F 28% 30.03 in 10.0 mi NNE 12.7 mph 19.6 mph N/A   Clear
5:55 PM 96.3 °F 95.5 °F 58.5 °F 28% 30.03 in 10.0 mi ENE 11.5 mph - N/A   Clear
6:15 PM 95.5 °F 94.4 °F 57.7 °F 28% 30.04 in 10.0 mi NE 15.0 mph 21.9 mph N/A   Clear
6:35 PM 94.8 °F 93.4 °F 56.5 °F 28% 30.04 in 10.0 mi NNE 16.1 mph 19.6 mph N/A   Clear
6:55 PM 94.1 °F 92.5 °F 56.3 °F 28% 30.04 in 10.0 mi ENE 16.1 mph - N/A   Clear
7:15 PM 93.2 °F 91.3 °F 55.4 °F 28% 30.05 in 10.0 mi ENE 13.8 mph - N/A   Clear
7:35 PM 92.3 °F 90.5 °F 55.4 °F 29% 30.06 in 10.0 mi ENE 15.0 mph - N/A   Clear
7:55 PM 91.4 °F 89.4 °F 54.5 °F 29% 30.06 in 10.0 mi NE 15.0 mph - N/A   Clear
8:15 PM 90.5 °F 88.1 °F 53.6 °F 28% 30.07 in 10.0 mi NE 16.1 mph - N/A   Clear
8:35 PM 89.1 °F 86.9 °F 54.1 °F 30% 30.07 in 10.0 mi NE 12.7 mph - N/A   Clear
8:55 PM 87.8 °F 85.9 °F 54.5 °F 32% 30.08 in 10.0 mi NE 11.5 mph - N/A   Clear
9:15 PM 86.9 °F 85.3 °F 55.4 °F 34% 30.10 in 10.0 mi NE 9.2 mph - N/A   Clear
9:35 PM 86.0 °F 84.7 °F 55.9 °F 36% 30.12 in 10.0 mi ENE 9.2 mph - N/A   Clear
9:55 PM 85.3 °F 84.1 °F 56.5 °F 37% 30.12 in 10.0 mi ENE 6.9 mph - N/A   Clear
10:15 PM 84.6 °F 83.9 °F 58.1 °F 40% 30.13 in 10.0 mi ENE 10.4 mph - N/A   Clear
10:35 PM 83.8 °F 83.8 °F 59.7 °F 44% 30.14 in 10.0 mi ENE 11.5 mph 16.1 mph N/A   Clear
10:55 PM 83.3 °F 83.9 °F 61.7 °F 48% 30.15 in 10.0 mi ENE 9.2 mph - N/A   Clear
11:15 PM 82.6 °F 83.2 °F 61.9 °F 49% 30.16 in 10.0 mi ENE 8.1 mph - N/A   Clear
11:35 PM 81.9 °F 82.8 °F 62.1 °F 51% 30.16 in 10.0 mi East 8.1 mph - N/A   Clear
11:55 PM 81.1 °F 82.1 °F 62.2 °F 52% 30.16 in 10.0 mi ENE 5.8 mph - N/A   Clear